Location: Eastchurch
(51.4000°N, 0.8667°E)
Time: 04:31:12
(UTC+00:00)

SPOT 1/Viking Rocket - Pass Details

Date: 19 April 2026
Orbit: 772 x 790 km, 98.2° (Epoch: 11 May)

Event Time Altitude Azimuth Distance (km) Brightness Sun altitude
Rises 19:31:02 0° 223° (SW) 3,277 7.0 -5.3°
Reaches altitude 10° 19:34:56 10° 252° (WSW) 2,353 6.8 -5.9°
Maximum altitude 19:37:01 12° 276° (W) 2,196 7.2 -6.2°
Drops below altitude 10° 19:39:06 10° 300° (WNW) 2,357 7.9 -6.5°
Sets 19:43:02 0° 330° (NNW) 3,289 7.9 -7.0°
